TimeMST,TemperatureF,Dew PointF,Humidity,Sea Level PressureIn,VisibilityMPH,Wind Direction,Wind SpeedMPH,Gust SpeedMPH,PrecipitationIn,Events,Conditions,WindDirDegrees,DateUTC
12:54 AM,53.1,18.0,25,30.04,10.0,Calm,Calm,-,N/A,,Clear,0,2013-06-28 07:54:00
1:54 AM,50.0,19.0,29,30.04,10.0,Calm,Calm,-,N/A,,Clear,0,2013-06-28 08:54:00
2:54 AM,50.0,19.0,29,30.03,10.0,Calm,Calm,-,N/A,,Clear,0,2013-06-28 09:54:00
3:54 AM,48.9,19.9,32,30.03,10.0,Calm,Calm,-,N/A,,Clear,0,2013-06-28 10:54:00
4:54 AM,48.0,21.0,34,30.04,10.0,Calm,Calm,-,N/A,,Clear,0,2013-06-28 11:54:00
5:54 AM,50.0,23.0,35,30.04,10.0,Calm,Calm,-,N/A,,Clear,0,2013-06-28 12:54:00
6:54 AM,62.1,30.0,30,30.01,10.0,Calm,Calm,-,N/A,,Clear,0,2013-06-28 13:54:00
7:54 AM,81.0,34.0,18,30.01,10.0,Calm,Calm,-,N/A,,Clear,0,2013-06-28 14:54:00
8:54 AM,89.1,28.0,11,30.01,10.0,Variable,3.5,-,N/A,,Clear,0,2013-06-28 15:54:00
9:54 AM,91.0,26.1,10,30.01,10.0,Variable,4.6,-,N/A,,Clear,0,2013-06-28 16:54:00
10:54 AM,93.9,26.1,9,30.01,10.0,NNE,9.2,-,N/A,,Clear,30,2013-06-28 17:54:00
11:54 AM,88.0,26.1,11,30.04,10.0,East,8.1,-,N/A,,Clear,80,2013-06-28 18:54:00
12:54 PM,88.0,19.0,8,30.02,10.0,SW,12.7,48.3,0.00,Rain,Light Rain,220,2013-06-28 19:54:00
1:01 PM,87.8,19.4,8,30.33,10.0,SSW,15.0,39.1,0.00,,Scattered Clouds,200,2013-06-28 20:01:00
1:54 PM,90.0,18.0,7,30.01,10.0,Calm,Calm,-,0.00,,Clear,0,2013-06-28 20:54:00
2:54 PM,90.0,18.0,7,29.99,10.0,SSW,13.8,20.7,N/A,,Clear,210,2013-06-28 21:54:00
3:54 PM,90.0,21.9,8,29.98,10.0,SSW,11.5,-,N/A,,Clear,210,2013-06-28 22:54:00
4:54 PM,91.0,21.9,8,29.95,10.0,South,9.2,-,N/A,,Clear,190,2013-06-28 23:54:00
5:54 PM,87.1,25.0,10,29.96,10.0,WSW,9.2,-,N/A,,Clear,250,2013-06-29 00:54:00
6:54 PM,84.9,26.1,12,29.93,10.0,Calm,Calm,-,N/A,,Clear,0,2013-06-29 01:54:00
7:54 PM,70.0,27.0,20,29.93,10.0,Calm,Calm,-,N/A,,Clear,0,2013-06-29 02:54:00
8:54 PM,66.0,26.1,22,29.92,10.0,Calm,Calm,-,N/A,,Clear,0,2013-06-29 03:54:00
9:54 PM,68.0,28.0,22,29.94,10.0,NE,4.6,-,N/A,,Clear,50,2013-06-29 04:54:00
10:54 PM,62.1,28.0,28,29.94,10.0,Calm,Calm,-,N/A,,Clear,0,2013-06-29 05:54:00
11:54 PM,61.0,28.0,29,29.96,10.0,Calm,Calm,-,N/A,,Clear,0,2013-06-29 06:54:00